Volver al catálogo

METEOR 2-21 DEB

LostPO
NORAD 40712·DEBRIS·🇷🇺 Russia

Lanzado Aug 31, 1993 desde Plesetsk Cosmodrome

Loading…

Próximos Pases (próximas 24 horas)

TLE

ObsoletoSource: Space-Track

Época: Mar 7, 2022, 06:54 UTC

1 40712U 93055E   22066.28794887  .00001983  00000-0  14730-2 0  9993
2 40712  82.5470  61.4508 0017513 148.0183 212.2050 13.94533965462099

Sigue METEOR 2-21 DEB en tiempo real con AllMySat

Download on the App Store